Time,TemperatureF,DewpointF,PressureIn,WindDirection,WindDirectionDegrees,WindSpeedMPH,WindSpeedGustMPH,Humidity,HourlyPrecipIn,Conditions,Clouds,dailyrainin,SoftwareType,DateUTC
2013-02-01 00:02:00,49.0,30.0,30.26,WSW,238,1.0,15.0,48,0.00,,,0.00,,2013-02-01 06:02:00,
2013-02-01 00:11:00,49.0,30.0,30.26,SW,228,3.0,6.0,48,0.00,,,0.00,,2013-02-01 06:11:00,
2013-02-01 00:22:00,49.0,30.0,30.26,SW,228,3.0,6.0,48,0.00,,,0.00,,2013-02-01 06:22:00,
2013-02-01 00:32:00,48.0,30.0,30.26,WSW,255,2.0,7.0,49,0.00,,,0.00,,2013-02-01 06:32:00,
2013-02-01 00:42:00,48.0,30.0,30.26,WSW,255,2.0,7.0,49,0.00,,,0.00,,2013-02-01 06:42:00,
2013-02-01 00:52:00,48.0,30.0,30.26,SW,224,1.0,11.0,50,0.00,,,0.00,,2013-02-01 06:52:00,
2013-02-01 01:01:00,48.0,31.0,30.26,SW,226,2.0,11.0,51,0.00,,,0.00,,2013-02-01 07:01:00,
2013-02-01 01:12:00,47.0,30.0,30.26,WSW,249,2.0,11.0,52,0.00,,,0.00,,2013-02-01 07:12:00,
2013-02-01 01:22:00,47.0,30.0,30.26,WSW,249,2.0,11.0,52,0.00,,,0.00,,2013-02-01 07:22:00,
2013-02-01 01:32:00,47.0,31.0,30.27,WSW,245,3.0,11.0,53,0.00,,,0.00,,2013-02-01 07:32:00,
2013-02-01 01:42:00,47.0,31.0,30.27,WSW,245,3.0,11.0,53,0.00,,,0.00,,2013-02-01 07:42:00,
2013-02-01 01:52:00,47.0,31.0,30.27,SW,223,1.0,11.0,53,0.00,,,0.00,,2013-02-01 07:52:00,
2013-02-01 02:01:00,47.0,31.0,30.27,WSW,258,0.0,11.0,54,0.00,,,0.00,,2013-02-01 08:01:00,
2013-02-01 02:11:00,47.0,31.0,30.27,WSW,258,0.0,11.0,54,0.00,,,0.00,,2013-02-01 08:11:00,
2013-02-01 02:21:00,46.0,30.0,30.27,West,273,1.0,11.0,54,0.00,,,0.00,,2013-02-01 08:21:00,
2013-02-01 02:31:00,46.0,31.0,30.31,NNW,341,1.0,11.0,56,0.00,,,0.00,,2013-02-01 08:31:00,
2013-02-01 02:42:00,46.0,31.0,30.31,NNW,341,1.0,11.0,56,0.00,,,0.00,,2013-02-01 08:42:00,
2013-02-01 02:52:00,45.0,31.0,30.30,NNW,339,0.0,11.0,57,0.00,,,0.00,,2013-02-01 08:52:00,
2013-02-01 03:01:00,45.0,31.0,30.31,North,355,0.0,11.0,58,0.00,,,0.00,,2013-02-01 09:01:00,
2013-02-01 03:11:00,45.0,31.0,30.31,North,355,0.0,11.0,58,0.00,,,0.00,,2013-02-01 09:11:00,
2013-02-01 03:21:00,45.0,32.0,30.31,North,355,0.0,11.0,59,0.00,,,0.00,,2013-02-01 09:21:00,
2013-02-01 03:32:00,44.0,31.0,30.32,North,355,0.0,11.0,61,0.00,,,0.00,,2013-02-01 09:32:00,
2013-02-01 03:41:00,44.0,31.0,30.32,North,355,0.0,11.0,61,0.00,,,0.00,,2013-02-01 09:41:00,
2013-02-01 03:52:00,43.0,31.0,30.32,NNW,340,0.0,11.0,63,0.00,,,0.00,,2013-02-01 09:52:00,
2013-02-01 04:01:00,43.0,32.0,30.32,NNW,342,2.0,11.0,65,0.00,,,0.00,,2013-02-01 10:01:00,
2013-02-01 04:11:00,43.0,32.0,30.32,NNW,342,2.0,11.0,65,0.00,,,0.00,,2013-02-01 10:11:00,
2013-02-01 04:21:00,44.0,33.0,30.32,NNW,329,2.0,11.0,65,0.00,,,0.00,,2013-02-01 10:21:00,
2013-02-01 04:31:00,44.0,33.0,30.33,NE,43,5.0,11.0,65,0.00,,,0.00,,2013-02-01 10:31:00,
2013-02-01 04:42:00,44.0,33.0,30.33,NE,43,5.0,11.0,65,0.00,,,0.00,,2013-02-01 10:42:00,
2013-02-01 04:53:00,43.0,32.0,30.34,NNE,33,2.0,11.0,66,0.00,,,0.00,,2013-02-01 10:53:00,
2013-02-01 05:01:00,42.0,31.0,30.35,NNE,18,5.0,11.0,65,0.00,,,0.00,,2013-02-01 11:01:00,
2013-02-01 05:11:00,42.0,31.0,30.35,NNE,18,5.0,11.0,65,0.00,,,0.00,,2013-02-01 11:11:00,
2013-02-01 05:22:00,42.0,32.0,30.35,North,3,2.0,11.0,67,0.00,,,0.00,,2013-02-01 11:22:00,
2013-02-01 05:32:00,41.0,29.0,30.37,North,5,1.0,11.0,61,0.00,,,0.00,,2013-02-01 11:32:00,
2013-02-01 05:41:00,41.0,29.0,30.37,North,5,1.0,11.0,61,0.00,,,0.00,,2013-02-01 11:41:00,
2013-02-01 05:53:00,40.0,26.0,30.37,NNE,33,0.0,11.0,58,0.00,,,0.00,,2013-02-01 11:53:00,
2013-02-01 06:02:00,39.0,25.0,30.37,NNW,340,1.0,11.0,58,0.00,,,0.00,,2013-02-01 12:02:00,
2013-02-01 06:12:00,39.0,25.0,30.37,NNW,340,1.0,11.0,58,0.00,,,0.00,,2013-02-01 12:12:00,
2013-02-01 06:22:00,38.0,25.0,30.38,NNE,21,2.0,11.0,59,0.00,,,0.00,,2013-02-01 12:22:00,
2013-02-01 06:32:00,38.0,25.0,30.38,NNE,14,2.0,11.0,59,0.00,,,0.00,,2013-02-01 12:32:00,
2013-02-01 06:42:00,38.0,25.0,30.38,NNE,14,2.0,11.0,59,0.00,,,0.00,,2013-02-01 12:42:00,
2013-02-01 06:52:00,38.0,25.0,30.40,NNE,22,0.0,11.0,59,0.00,,,0.00,,2013-02-01 12:52:00,
2013-02-01 07:02:00,37.0,24.0,30.40,NE,43,1.0,11.0,60,0.00,,,0.00,,2013-02-01 13:02:00,
2013-02-01 07:11:00,37.0,24.0,30.40,NE,43,1.0,11.0,60,0.00,,,0.00,,2013-02-01 13:11:00,
2013-02-01 07:22:00,37.0,24.0,30.41,NNE,33,1.0,11.0,60,0.00,,,0.00,,2013-02-01 13:22:00,
2013-02-01 07:32:00,37.0,25.0,30.42,NNW,343,2.0,11.0,61,0.00,,,0.00,,2013-02-01 13:32:00,
2013-02-01 07:42:00,37.0,25.0,30.42,NNW,343,2.0,11.0,61,0.00,,,0.00,,2013-02-01 13:42:00,
2013-02-01 07:53:00,36.0,24.0,30.42,North,11,1.0,11.0,62,0.00,,,0.00,,2013-02-01 13:53:00,
2013-02-01 08:03:00,36.0,24.0,30.43,NE,38,3.0,11.0,62,0.00,,,0.00,,2013-02-01 14:03:00,
2013-02-01 08:11:00,36.0,25.0,30.44,NNE,29,1.0,11.0,64,0.00,,,0.00,,2013-02-01 14:11:00,
2013-02-01 08:21:00,36.0,25.0,30.44,NNE,29,1.0,11.0,64,0.00,,,0.00,,2013-02-01 14:21:00,
2013-02-01 08:32:00,36.0,25.0,30.44,NE,38,2.0,11.0,63,0.00,,,0.00,,2013-02-01 14:32:00,
2013-02-01 08:42:00,37.0,26.0,30.45,NE,38,0.0,11.0,63,0.00,,,0.00,,2013-02-01 14:42:00,
2013-02-01 08:53:00,37.0,26.0,30.45,NE,38,0.0,11.0,63,0.00,,,0.00,,2013-02-01 14:53:00,
2013-02-01 09:02:00,38.0,25.0,30.45,NNE,33,3.0,11.0,60,0.00,,,0.00,,2013-02-01 15:02:00,
2013-02-01 09:12:00,38.0,24.0,30.45,NNE,16,3.0,11.0,56,0.00,,,0.00,,2013-02-01 15:12:00,
2013-02-01 09:21:00,38.0,24.0,30.45,NNE,16,3.0,11.0,56,0.00,,,0.00,,2013-02-01 15:21:00,
2013-02-01 09:32:00,39.0,23.0,30.46,NNE,33,1.0,11.0,53,0.00,,,0.00,,2013-02-01 15:32:00,
2013-02-01 09:42:00,39.0,23.0,30.46,NNE,33,1.0,11.0,53,0.00,,,0.00,,2013-02-01 15:42:00,
2013-02-01 09:52:00,40.0,23.0,30.46,NNE,28,1.0,11.0,51,0.00,,,0.00,,2013-02-01 15:52:00,
2013-02-01 10:02:00,41.0,24.0,30.46,NNE,29,2.0,11.0,51,0.00,,,0.00,,2013-02-01 16:02:00,
2013-02-01 10:11:00,41.0,23.0,30.46,ENE,62,2.0,11.0,48,0.00,,,0.00,,2013-02-01 16:11:00,
2013-02-01 10:22:00,41.0,23.0,30.46,ENE,62,2.0,11.0,48,0.00,,,0.00,,2013-02-01 16:22:00,
2013-02-01 10:33:00,42.0,22.0,30.46,ESE,111,0.0,11.0,45,0.00,,,0.00,,2013-02-01 16:33:00,
2013-02-01 10:42:00,44.0,22.0,30.46,ENE,60,1.0,11.0,42,0.00,,,0.00,,2013-02-01 16:42:00,
2013-02-01 10:52:00,44.0,22.0,30.46,ENE,60,1.0,11.0,42,0.00,,,0.00,,2013-02-01 16:52:00,
2013-02-01 11:02:00,44.0,22.0,30.45,ENE,59,1.0,11.0,41,0.00,,,0.00,,2013-02-01 17:02:00,
2013-02-01 11:11:00,45.0,23.0,30.45,NNE,28,1.0,11.0,42,0.00,,,0.00,,2013-02-01 17:11:00,
2013-02-01 11:22:00,45.0,23.0,30.45,NNE,28,1.0,11.0,42,0.00,,,0.00,,2013-02-01 17:22:00,
2013-02-01 11:32:00,46.0,23.0,30.44,North,8,0.0,11.0,40,0.00,,,0.00,,2013-02-01 17:32:00,
2013-02-01 11:42:00,46.0,23.0,30.44,North,8,0.0,11.0,40,0.00,,,0.00,,2013-02-01 17:42:00,
2013-02-01 11:53:00,47.0,23.0,30.43,NNE,26,2.0,11.0,38,0.00,,,0.00,,2013-02-01 17:53:00,
2013-02-01 12:02:00,48.0,24.0,30.43,NE,43,0.0,11.0,38,0.00,,,0.00,,2013-02-01 18:02:00,
2013-02-01 12:12:00,48.0,24.0,30.43,NE,43,0.0,11.0,38,0.00,,,0.00,,2013-02-01 18:12:00,
2013-02-01 12:22:00,49.0,25.0,30.43,NW,326,2.0,11.0,38,0.00,,,0.00,,2013-02-01 18:22:00,
2013-02-01 12:32:00,49.0,26.0,30.43,NNE,24,2.0,11.0,40,0.00,,,0.00,,2013-02-01 18:32:00,
2013-02-01 12:42:00,49.0,26.0,30.43,NNE,24,2.0,11.0,40,0.00,,,0.00,,2013-02-01 18:42:00,
2013-02-01 12:53:00,50.0,24.0,30.42,WNW,302,8.0,14.0,36,0.00,,,0.00,,2013-02-01 18:53:00,
2013-02-01 13:02:00,50.0,25.0,30.41,North,357,1.0,14.0,37,0.00,,,0.00,,2013-02-01 19:02:00,
2013-02-01 13:11:00,50.0,25.0,30.41,North,357,1.0,14.0,37,0.00,,,0.00,,2013-02-01 19:11:00,
2013-02-01 13:21:00,50.0,23.0,30.40,North,356,2.0,14.0,35,0.00,,,0.00,,2013-02-01 19:21:00,
2013-02-01 13:32:00,51.0,23.0,30.39,ENE,68,3.0,14.0,33,0.00,,,0.00,,2013-02-01 19:32:00,
2013-02-01 13:41:00,51.0,23.0,30.39,ENE,68,3.0,14.0,33,0.00,,,0.00,,2013-02-01 19:41:00,
2013-02-01 13:52:00,52.0,22.0,30.38,NNE,14,6.0,14.0,30,0.00,,,0.00,,2013-02-01 19:52:00,
2013-02-01 14:02:00,51.0,20.0,30.38,NNE,14,1.0,14.0,29,0.00,,,0.00,,2013-02-01 20:02:00,
2013-02-01 14:11:00,52.0,22.0,30.37,North,1,2.0,14.0,30,0.00,,,0.00,,2013-02-01 20:11:00,
2013-02-01 14:21:00,52.0,22.0,30.37,North,1,2.0,14.0,30,0.00,,,0.00,,2013-02-01 20:21:00,
2013-02-01 14:31:00,52.0,22.0,30.37,NNW,348,3.0,14.0,30,0.00,,,0.00,,2013-02-01 20:31:00,
2013-02-01 14:41:00,52.0,21.0,30.37,NNW,342,1.0,14.0,29,0.00,,,0.00,,2013-02-01 20:41:00,
2013-02-01 14:52:00,52.0,21.0,30.37,NNW,342,1.0,14.0,29,0.00,,,0.00,,2013-02-01 20:52:00,
2013-02-01 15:02:00,52.0,21.0,30.37,NNW,347,2.0,14.0,29,0.00,,,0.00,,2013-02-01 21:02:00,
2013-02-01 15:11:00,52.0,21.0,30.37,NNW,347,2.0,14.0,29,0.00,,,0.00,,2013-02-01 21:11:00,
2013-02-01 15:21:00,52.0,20.0,30.36,NE,43,1.0,14.0,28,0.00,,,0.00,,2013-02-01 21:21:00,
2013-02-01 15:32:00,52.0,20.0,30.35,NE,48,1.0,14.0,28,0.00,,,0.00,,2013-02-01 21:32:00,
2013-02-01 15:41:00,52.0,20.0,30.35,NE,48,1.0,14.0,28,0.00,,,0.00,,2013-02-01 21:41:00,
2013-02-01 15:52:00,52.0,21.0,30.35,NNE,33,0.0,14.0,29,0.00,,,0.00,,2013-02-01 21:52:00,
2013-02-01 16:02:00,53.0,20.0,30.35,NE,43,2.0,14.0,27,0.00,,,0.00,,2013-02-01 22:02:00,
2013-02-01 16:11:00,52.0,20.0,30.35,NNE,24,5.0,14.0,28,0.00,,,0.00,,2013-02-01 22:11:00,
2013-02-01 16:21:00,52.0,20.0,30.35,NNE,24,5.0,14.0,28,0.00,,,0.00,,2013-02-01 22:21:00,
2013-02-01 16:32:00,52.0,21.0,30.35,NE,51,0.0,14.0,29,0.00,,,0.00,,2013-02-01 22:32:00,
2013-02-01 16:42:00,52.0,21.0,30.35,NE,51,0.0,14.0,29,0.00,,,0.00,,2013-02-01 22:42:00,
2013-02-01 16:52:00,52.0,21.0,30.35,ESE,114,0.0,14.0,29,0.00,,,0.00,,2013-02-01 22:52:00,
2013-02-01 17:01:00,51.0,20.0,30.34,NNE,33,0.0,14.0,29,0.00,,,0.00,,2013-02-01 23:01:00,
2013-02-01 17:11:00,50.0,21.0,30.34,NE,51,0.0,14.0,31,0.00,,,0.00,,2013-02-01 23:11:00,
2013-02-01 17:21:00,50.0,21.0,30.34,NE,51,0.0,14.0,31,0.00,,,0.00,,2013-02-01 23:21:00,
2013-02-01 17:31:00,49.0,20.0,30.34,NE,53,0.0,14.0,32,0.00,,,0.00,,2013-02-01 23:31:00,
2013-02-01 17:41:00,49.0,20.0,30.34,NE,53,0.0,14.0,32,0.00,,,0.00,,2013-02-01 23:41:00,
2013-02-01 17:52:00,48.0,22.0,30.34,NNE,33,0.0,14.0,35,0.00,,,0.00,,2013-02-01 23:52:00,
2013-02-01 18:02:00,48.0,23.0,30.35,NNE,33,0.0,14.0,37,0.00,,,0.00,,2013-02-02 00:02:00,
2013-02-01 18:11:00,48.0,23.0,30.35,NNE,33,0.0,14.0,37,0.00,,,0.00,,2013-02-02 00:11:00,
2013-02-01 18:21:00,45.0,24.0,30.35,NNE,33,0.0,14.0,43,0.00,,,0.00,,2013-02-02 00:21:00,
2013-02-01 18:32:00,44.0,23.0,30.35,NNE,33,0.0,14.0,44,0.00,,,0.00,,2013-02-02 00:32:00,
2013-02-01 18:41:00,44.0,23.0,30.35,NNE,33,0.0,14.0,44,0.00,,,0.00,,2013-02-02 00:41:00,
2013-02-01 18:52:00,43.0,25.0,30.34,NNE,33,0.0,14.0,48,0.00,,,0.00,,2013-02-02 00:52:00,
2013-02-01 19:02:00,42.0,24.0,30.35,NNE,33,0.0,14.0,49,0.00,,,0.00,,2013-02-02 01:02:00,
2013-02-01 19:11:00,42.0,24.0,30.35,NNE,33,0.0,14.0,49,0.00,,,0.00,,2013-02-02 01:11:00,
2013-02-01 19:21:00,41.0,26.0,30.35,NNE,33,0.0,14.0,54,0.00,,,0.00,,2013-02-02 01:21:00,
2013-02-01 19:32:00,39.0,24.0,30.35,NNE,33,0.0,14.0,55,0.00,,,0.00,,2013-02-02 01:32:00,
2013-02-01 19:41:00,39.0,24.0,30.35,NNE,33,0.0,14.0,55,0.00,,,0.00,,2013-02-02 01:41:00,
2013-02-01 19:52:00,39.0,26.0,30.35,NNE,33,0.0,14.0,59,0.00,,,0.00,,2013-02-02 01:52:00,
2013-02-01 20:01:00,38.0,25.0,30.35,NNE,33,0.0,14.0,59,0.00,,,0.00,,2013-02-02 02:01:00,
2013-02-01 20:11:00,38.0,25.0,30.35,NNE,33,0.0,14.0,59,0.00,,,0.00,,2013-02-02 02:11:00,
2013-02-01 20:21:00,38.0,26.0,30.35,NNE,33,0.0,14.0,61,0.00,,,0.00,,2013-02-02 02:21:00,
2013-02-01 20:31:00,37.0,26.0,30.35,NNE,33,0.0,14.0,63,0.00,,,0.00,,2013-02-02 02:31:00,
2013-02-01 20:41:00,37.0,26.0,30.35,NNE,33,0.0,14.0,63,0.00,,,0.00,,2013-02-02 02:41:00,
2013-02-01 20:52:00,37.0,26.0,30.35,NNE,33,0.0,14.0,65,0.00,,,0.00,,2013-02-02 02:52:00,
2013-02-01 21:02:00,36.0,26.0,30.36,NNE,33,0.0,14.0,67,0.00,,,0.00,,2013-02-02 03:02:00,
2013-02-01 21:11:00,36.0,26.0,30.35,NNE,33,0.0,14.0,68,0.00,,,0.00,,2013-02-02 03:11:00,
2013-02-01 21:21:00,36.0,26.0,30.35,NNE,33,0.0,14.0,68,0.00,,,0.00,,2013-02-02 03:21:00,
2013-02-01 21:32:00,36.0,26.0,30.35,NNE,33,0.0,14.0,68,0.00,,,0.00,,2013-02-02 03:32:00,
2013-02-01 21:42:00,36.0,26.0,30.34,East,96,0.0,14.0,68,0.00,,,0.00,,2013-02-02 03:42:00,
2013-02-01 21:52:00,36.0,26.0,30.34,East,96,0.0,14.0,68,0.00,,,0.00,,2013-02-02 03:52:00,
2013-02-01 22:01:00,36.0,26.0,30.34,ESE,111,0.0,14.0,66,0.00,,,0.00,,2013-02-02 04:01:00,
2013-02-01 22:11:00,36.0,26.0,30.34,ESE,111,0.0,14.0,66,0.00,,,0.00,,2013-02-02 04:11:00,
2013-02-01 22:21:00,36.0,26.0,30.35,ESE,111,0.0,14.0,68,0.00,,,0.00,,2013-02-02 04:21:00,
2013-02-01 22:32:00,36.0,26.0,30.35,ESE,111,0.0,14.0,67,0.00,,,0.00,,2013-02-02 04:32:00,
2013-02-01 22:41:00,36.0,26.0,30.35,ESE,111,0.0,14.0,67,0.00,,,0.00,,2013-02-02 04:41:00,
2013-02-01 22:52:00,36.0,25.0,30.35,ESE,119,0.0,14.0,64,0.00,,,0.00,,2013-02-02 04:52:00,
2013-02-01 23:03:00,36.0,25.0,30.35,SSE,166,0.0,14.0,65,0.00,,,0.00,,2013-02-02 05:03:00,
2013-02-01 23:12:00,36.0,25.0,30.35,SSE,166,0.0,14.0,65,0.00,,,0.00,,2013-02-02 05:12:00,
2013-02-01 23:22:00,37.0,26.0,30.34,ESE,107,0.0,14.0,63,0.00,,,0.00,,2013-02-02 05:22:00,
2013-02-01 23:33:00,36.0,25.0,30.34,SSE,159,0.0,14.0,65,0.00,,,0.00,,2013-02-02 05:33:00,
2013-02-01 23:41:00,36.0,25.0,30.34,SSE,159,0.0,14.0,65,0.00,,,0.00,,2013-02-02 05:41:00,
2013-02-01 23:52:00,35.0,25.0,30.34,East,86,0.0,14.0,66,0.00,,,0.00,,2013-02-02 05:52:00,